Location: Kailua
(21.4020°N, 157.7390°W)
Time: 12:54:18
(UTC-10:00)

Cosmos 2221 Rocket - Visible Passes

Search period start: 29 July 2014 00:00
Search period end: 08 August 2014 00:00
Orbit: 621 x 650 km, 82.5° (Epoch: 28 July)

Date Brightness Start Highest point End Pass type
(mag) Time Alt. Az. Time Alt. Az. Time Alt. Az.
29 Jul 3.8 05:14:04 10° S 05:18:28 76° E 05:22:52 10° N visible
30 Jul 4.1 05:36:58 10° SSW 05:41:06 40° W 05:45:15 10° NNW visible
31 Jul 5.9 04:22:19 10° SE 04:25:47 23° E 04:29:15 10° NE visible
01 Aug 4.1 04:43:59 10° S 04:48:18 59° E 04:52:38 10° NNE visible
02 Aug 3.7 05:06:41 10° SSW 05:10:55 51° W 05:15:11 10° N visible
03 Aug 6.1 03:52:36 10° SE 03:55:39 19° E 03:58:41 10° NE visible
03 Aug 4.9 05:30:21 10° SW 05:33:37 20° W 05:36:53 10° NNW visible
04 Aug 4.5 04:15:55 25° SSE 04:18:08 46° E 04:22:21 10° NNE visible
05 Aug 3.5 04:39:14 39° SSW 04:40:43 65° W 04:45:05 10° N visible
06 Aug 6.2 03:24:56 15° E 03:25:31 15° E 03:27:59 10° NE visible
06 Aug 4.6 05:02:29 23° WSW 05:03:24 25° W 05:07:03 10° NNW visible
07 Aug 4.9 03:48:09 37° E 03:48:09 37° E 03:52:01 10° NNE visible
